Вернуться в каталог

FALCONSAT-10

АктивенНаукаSSO
NORAD 58291·PAYLOAD·🇺🇸 United States

Запущен Nov 11, 2023 с Vandenberg Space Force Base

Loading…

Ближайшие Пролёты (ближайшие 24 часа)

TLE

СвежийSource: Space-Track

Эпоха: Sep 14, 2026, 22:39 UTC

1 58291U 23174AM  26257.94399649  .00004383  00000-0  16125-3 0  9993
2 58291  97.3730 333.0976 0007137 221.4026 138.6673 15.28377605158475

Отслеживайте FALCONSAT-10 в реальном времени с AllMySat

Download on the App Store